Regional Weather Roundup
Issued by NWS Cleveland, OH

Home | Current Version | Previous Version | Text Only | Print | Product List | Glossary On
Versions: 1 2 3 4 5 6 7 8 9 10 11 12 13 14 15 16 17 18 19 20 21 22 23 24 25 26 27 28 29 30 31 32 33 34 35 36 37 38 39 40 41 42 43 44 45 46 47 48 49 50
000
ASUS41 KCLE 061902
RWRCLE
OHIO REGIONAL WEATHER ROUNDUP
NATIONAL WEATHER SERVICE CLEVELAND, OH
200 PM EST SAT FEB 06 2016

NOTE: "FAIR" INDICATES FEW OR NO CLOUDS BELOW 12,000 FEET WITH NO
SIGNIFICANT WEATHER AND/OR OBSTRUCTIONS TO VISIBILITY.

OHZ001>008-015>018-024>027-034-035-043-044-062000-
   NORTHWEST OHIO

CITY           SKY/WX    TMP DP  RH WIND       PRES   REMARKS
DEFIANCE       MOSUNNY   36  24  62 SW10      30.24F
FINDLAY        MOSUNNY   36  25  64 SW13      30.23F
TOLEDO EXPRESS PTSUNNY   33  23  66 SW12G17   30.23F WCI  24
TOLEDO EXEC    PTSUNNY   34  24  67 SW15      30.24F WCI  24
LIMA           SUNNY     36  21  54 SW14      30.23F
$$

OHZ009>014-019>023-028>033-038-089-062000-
   NORTHEAST OHIO

CITY           SKY/WX    TMP DP  RH WIND       PRES   REMARKS
CLE-HOPKINS    SUNNY     38  21  50 SW12      30.25F
CLE-LAKEFRONT  SUNNY     36  25  64 NW7       30.22F
CUY CO. ARPT   SUNNY     41  19  42 SW13      30.22F
LORAIN-ELYRIA  SUNNY     37  23  56 SW14      30.23F
ASHTABULA      SUNNY     36  19  50 SW6       30.22F
AKRON-CANTON   MOSUNNY   37  18  46 W9        30.22F
WOOSTER        SUNNY     36  23  59 SW12      30.22F
MANSFIELD      SUNNY     37  22  54 SW9       30.21F
YOUNGSTOWN     MOSUNNY   38  20  48 W13       30.21F
$$

OHZ042-051>053-060>062-070>072-077>081-062000-
  SOUTHWEST OHIO

CITY           SKY/WX    TMP DP  RH WIND       PRES   REMARKS
CINC-COVINGTON PTSUNNY   43  23  45 W7        30.27F
CINC-LUNKEN    PTSUNNY   45  21  38 W6        30.30F
HAMILTON       SUNNY     44  22  41 VRB5      30.30F
DAYTON         MOSUNNY   40  15  36 W9        30.26F
WRIGHT-PAT AFB SUNNY     41  13  31 SW10G17   30.26F
DAYTON GENERAL SUNNY     40  17  39 SW8       30.26F
WILMINGTON     SUNNY     42  19  39 SW6       30.26F
$$

OHZ036-037-039>041-045>050-054>059-063>069-073>076-082>088-062000-
  CENTRAL AND SOUTHEAST OHIO

CITY           SKY/WX    TMP DP  RH WIND       PRES   REMARKS
COLUMBUS       MOSUNNY   40  11  30 SW12      30.26F
OSU AIRPORT    SUNNY     41  18  39 SW8       30.24F
BOLTON FIELD   SUNNY     39  18  41 SW9       30.26F
RICKENBACK AFB NOT AVBL
NEWARK         SUNNY     41  17  38 SW10G17   30.25F
MARION         SUNNY     38  21  50 SW8       30.24F
LANCASTER      SUNNY     41  18  39 W10       30.27F
ZANESVILLE     SUNNY     43  14  31 SW12      30.26F
NEW PHILLY     SUNNY     40  16  37 SW9       30.25F
$$



USA.gov is the U.S. government's official web portal to all federal, state and local government web resources and services.